Time,TemperatureF,DewpointF,PressureIn,WindDirection,WindDirectionDegrees,WindSpeedMPH,WindSpeedGustMPH,Humidity,HourlyPrecipIn,Conditions,Clouds,dailyrainin,SoftwareType,DateUTC
2013-07-22 00:02:00,61.0,50.0,29.80,NNW,337,0.0,0.0,67,0.00,,,0.00,LWC V2.10 B1813,2013-07-22 07:02:00,
2013-07-22 00:07:00,60.6,49.7,29.80,WNW,292,0.0,0.0,67,0.00,,,0.00,LWC V2.10 B1813,2013-07-22 07:07:00,
2013-07-22 00:12:00,60.6,50.1,29.80,NW,315,0.0,0.0,68,0.00,,,0.00,LWC V2.10 B1813,2013-07-22 07:12:00,
2013-07-22 00:17:00,60.4,49.9,29.80,NW,315,0.0,0.0,68,0.00,,,0.00,LWC V2.10 B1813,2013-07-22 07:17:00,
2013-07-22 00:22:00,60.3,49.7,29.80,NE,45,0.0,0.0,68,0.00,,,0.00,LWC V2.10 B1813,2013-07-22 07:22:00,
2013-07-22 00:27:00,60.3,49.7,29.80,NE,45,0.0,0.0,68,0.00,,,0.00,LWC V2.10 B1813,2013-07-22 07:27:00,
2013-07-22 00:32:00,60.3,49.7,29.80,NE,45,0.0,0.0,68,0.00,,,0.00,LWC V2.10 B1813,2013-07-22 07:32:00,
2013-07-22 00:37:00,60.4,50.3,29.80,NE,45,0.0,0.0,69,0.00,,,0.00,LWC V2.10 B1813,2013-07-22 07:37:00,
2013-07-22 00:42:00,60.3,50.1,29.80,ENE,67,0.0,0.0,69,0.00,,,0.00,LWC V2.10 B1813,2013-07-22 07:42:00,
2013-07-22 00:47:00,60.1,49.9,29.80,ESE,112,0.0,0.0,69,0.00,,,0.00,LWC V2.10 B1813,2013-07-22 07:47:00,
2013-07-22 00:52:00,60.3,50.1,29.80,ESE,112,0.0,0.0,69,0.00,,,0.00,LWC V2.10 B1813,2013-07-22 07:52:00,
2013-07-22 00:57:00,60.1,49.9,29.80,NNE,22,0.0,0.0,69,0.00,,,0.00,LWC V2.10 B1813,2013-07-22 07:57:00,
2013-07-22 01:02:00,60.1,50.4,29.80,WNW,292,0.0,0.0,70,0.00,,,0.00,LWC V2.10 B1813,2013-07-22 08:02:00,
2013-07-22 01:07:00,60.1,50.4,29.80,WNW,292,0.0,0.0,70,0.00,,,0.00,LWC V2.10 B1813,2013-07-22 08:07:00,
2013-07-22 01:12:00,59.9,50.2,29.80,NW,315,3.1,3.1,70,0.00,,,0.00,LWC V2.10 B1813,2013-07-22 08:12:00,
2013-07-22 01:17:00,59.7,50.0,29.80,NW,315,0.0,0.0,70,0.00,,,0.00,LWC V2.10 B1813,2013-07-22 08:17:00,
2013-07-22 01:22:00,59.5,49.8,29.80,NW,315,0.0,0.0,70,0.00,,,0.00,LWC V2.10 B1813,2013-07-22 08:22:00,
2013-07-22 01:27:00,59.4,49.6,29.80,West,270,0.0,0.0,70,0.00,,,0.00,LWC V2.10 B1813,2013-07-22 08:27:00,
2013-07-22 01:32:00,59.4,49.6,29.80,West,270,0.0,0.0,70,0.00,,,0.00,LWC V2.10 B1813,2013-07-22 08:32:00,
2013-07-22 01:37:00,59.4,50.0,29.81,ENE,67,4.5,4.5,71,0.00,,,0.00,LWC V2.10 B1813,2013-07-22 08:37:00,
2013-07-22 01:42:00,59.5,50.2,29.81,ENE,67,0.0,0.0,71,0.00,,,0.00,LWC V2.10 B1813,2013-07-22 08:42:00,
2013-07-22 01:47:00,59.5,50.5,29.81,ESE,112,4.7,4.7,72,0.00,,,0.00,LWC V2.10 B1813,2013-07-22 08:47:00,
2013-07-22 01:52:00,59.7,50.7,29.81,ENE,67,0.0,1.1,72,0.00,,,0.00,LWC V2.10 B1813,2013-07-22 08:52:00,
2013-07-22 01:57:00,59.7,50.7,29.81,East,90,0.0,0.0,72,0.00,,,0.00,LWC V2.10 B1813,2013-07-22 08:57:00,
2013-07-22 02:02:00,59.7,50.7,29.81,East,90,0.0,0.0,72,0.00,,,0.00,LWC V2.10 B1813,2013-07-22 09:02:00,
2013-07-22 02:07:00,59.7,50.7,29.81,NE,45,0.0,0.0,73,0.00,,,0.00,LWC V2.10 B1813,2013-07-22 09:07:00,
2013-07-22 02:12:00,59.7,50.7,29.81,NE,45,0.0,0.0,72,0.00,,,0.00,LWC V2.10 B1813,2013-07-22 09:12:00,
2013-07-22 02:17:00,59.7,51.1,29.81,NE,45,0.0,0.0,73,0.00,,,0.00,LWC V2.10 B1813,2013-07-22 09:17:00,
2013-07-22 02:22:00,59.9,50.9,29.81,NNE,22,0.0,0.0,72,0.00,,,0.00,LWC V2.10 B1813,2013-07-22 09:22:00,
2013-07-22 02:27:00,59.9,51.3,29.81,West,270,0.0,0.0,73,0.00,,,0.00,LWC V2.10 B1813,2013-07-22 09:27:00,
2013-07-22 02:32:00,59.7,50.7,29.80,West,270,0.0,0.0,72,0.00,,,0.00,LWC V2.10 B1813,2013-07-22 09:32:00,
2013-07-22 02:37:00,59.4,50.4,29.81,NW,315,0.0,0.0,72,0.00,,,0.00,LWC V2.10 B1813,2013-07-22 09:37:00,
2013-07-22 02:42:00,59.2,50.2,29.81,NW,315,1.6,1.6,72,0.00,,,0.00,LWC V2.10 B1813,2013-07-22 09:42:00,
2013-07-22 02:47:00,58.8,49.8,29.81,West,270,0.0,0.0,72,0.00,,,0.00,LWC V2.10 B1813,2013-07-22 09:47:00,
2013-07-22 02:52:00,58.5,49.5,29.81,West,270,1.8,1.8,72,0.00,,,0.00,LWC V2.10 B1813,2013-07-22 09:52:00,
2013-07-22 02:57:00,58.1,49.1,29.81,WNW,292,0.0,0.0,72,0.00,,,0.00,LWC V2.10 B1813,2013-07-22 09:57:00,
2013-07-22 03:02:00,57.9,48.9,29.81,West,270,0.0,0.0,72,0.00,,,0.00,LWC V2.10 B1813,2013-07-22 10:02:00,
2013-07-22 03:07:00,57.7,48.7,29.81,NW,315,0.0,2.5,72,0.00,,,0.00,LWC V2.10 B1813,2013-07-22 10:07:00,
2013-07-22 03:12:00,57.6,48.6,29.80,NW,315,0.0,0.0,72,0.00,,,0.00,LWC V2.10 B1813,2013-07-22 10:12:00,
2013-07-22 03:17:00,57.6,48.9,29.80,NNW,337,0.0,0.0,73,0.00,,,0.00,LWC V2.10 B1813,2013-07-22 10:17:00,
2013-07-22 03:22:00,57.4,48.7,29.81,NW,315,0.0,0.0,73,0.00,,,0.00,LWC V2.10 B1813,2013-07-22 10:22:00,
2013-07-22 03:27:00,57.4,49.1,29.81,NNW,337,0.0,0.0,74,0.00,,,0.00,LWC V2.10 B1813,2013-07-22 10:27:00,
2013-07-22 03:32:00,57.6,49.3,29.81,WNW,292,0.0,0.0,74,0.00,,,0.00,LWC V2.10 B1813,2013-07-22 10:32:00,
2013-07-22 03:37:00,57.7,49.5,29.81,WNW,292,2.0,2.0,74,0.00,,,0.00,LWC V2.10 B1813,2013-07-22 10:37:00,
2013-07-22 03:42:00,57.7,49.8,29.80,North,0,0.0,0.0,75,0.00,,,0.00,LWC V2.10 B1813,2013-07-22 10:42:00,
2013-07-22 03:47:00,57.9,49.6,29.80,North,0,0.0,0.0,74,0.00,,,0.00,LWC V2.10 B1813,2013-07-22 10:47:00,
2013-07-22 03:52:00,57.7,49.5,29.80,West,270,0.0,0.0,74,0.00,,,0.00,LWC V2.10 B1813,2013-07-22 10:52:00,
2013-07-22 03:57:00,57.7,49.5,29.81,NW,315,0.0,0.0,74,0.00,,,0.00,LWC V2.10 B1813,2013-07-22 10:57:00,
2013-07-22 04:02:00,57.7,49.5,29.81,NW,315,0.0,0.0,74,0.00,,,0.00,LWC V2.10 B1813,2013-07-22 11:02:00,
2013-07-22 04:07:00,57.6,49.3,29.81,NNW,337,0.0,0.0,74,0.00,,,0.00,LWC V2.10 B1813,2013-07-22 11:07:00,
2013-07-22 04:12:00,57.6,49.3,29.81,NW,315,0.0,0.0,74,0.00,,,0.00,LWC V2.10 B1813,2013-07-22 11:12:00,
2013-07-22 04:17:00,57.4,49.1,29.81,WSW,247,0.0,0.0,74,0.00,,,0.00,LWC V2.10 B1813,2013-07-22 11:17:00,
2013-07-22 04:22:00,57.6,49.3,29.81,WSW,247,0.0,0.0,74,0.00,,,0.00,LWC V2.10 B1813,2013-07-22 11:22:00,
2013-07-22 04:27:00,57.7,49.8,29.81,West,270,0.0,0.0,75,0.00,,,0.00,LWC V2.10 B1813,2013-07-22 11:27:00,
2013-07-22 04:32:00,57.7,49.5,29.81,West,270,0.0,0.0,74,0.00,,,0.00,LWC V2.10 B1813,2013-07-22 11:32:00,
2013-07-22 04:37:00,57.7,49.5,29.81,West,270,0.0,0.0,74,0.00,,,0.00,LWC V2.10 B1813,2013-07-22 11:37:00,
2013-07-22 04:42:00,57.7,49.5,29.82,West,270,0.0,0.0,74,0.00,,,0.00,LWC V2.10 B1813,2013-07-22 11:42:00,
2013-07-22 04:47:00,57.9,49.6,29.82,West,270,0.0,0.0,74,0.00,,,0.00,LWC V2.10 B1813,2013-07-22 11:47:00,
2013-07-22 04:52:00,57.9,49.6,29.82,West,270,0.0,0.0,74,0.00,,,0.00,LWC V2.10 B1813,2013-07-22 11:52:00,
2013-07-22 04:57:00,57.7,49.5,29.82,NNW,337,0.0,0.0,74,0.00,,,0.00,LWC V2.10 B1813,2013-07-22 11:57:00,
2013-07-22 05:02:00,57.7,49.8,29.82,NNW,337,0.0,0.0,75,0.00,,,0.00,LWC V2.10 B1813,2013-07-22 12:02:00,
2013-07-22 05:07:00,57.4,49.5,29.82,WNW,292,0.0,2.2,75,0.00,,,0.00,LWC V2.10 B1813,2013-07-22 12:07:00,
2013-07-22 05:12:00,57.4,49.5,29.82,NW,315,0.0,0.0,75,0.00,,,0.00,LWC V2.10 B1813,2013-07-22 12:12:00,
2013-07-22 05:17:00,57.4,49.5,29.82,NW,315,0.0,0.0,75,0.00,,,0.00,LWC V2.10 B1813,2013-07-22 12:17:00,
2013-07-22 05:22:00,57.4,49.5,29.82,NW,315,0.0,0.0,75,0.00,,,0.00,LWC V2.10 B1813,2013-07-22 12:22:00,
2013-07-22 05:27:00,57.6,49.6,29.82,West,270,0.0,0.0,75,0.00,,,0.00,LWC V2.10 B1813,2013-07-22 12:27:00,
2013-07-22 05:32:00,57.6,50.0,29.82,West,270,0.0,0.0,76,0.00,,,0.00,LWC V2.10 B1813,2013-07-22 12:32:00,
2013-07-22 05:37:00,57.7,50.2,29.82,West,270,0.0,0.0,76,0.00,,,0.00,LWC V2.10 B1813,2013-07-22 12:37:00,
2013-07-22 05:42:00,57.9,50.4,29.82,West,270,0.0,0.0,76,0.00,,,0.00,LWC V2.10 B1813,2013-07-22 12:42:00,
2013-07-22 05:47:00,57.9,50.4,29.83,NE,45,0.0,0.0,76,0.00,,,0.00,LWC V2.10 B1813,2013-07-22 12:47:00,
2013-07-22 05:52:00,58.1,50.5,29.82,SSE,157,0.0,0.0,76,0.00,,,0.00,LWC V2.10 B1813,2013-07-22 12:52:00,
2013-07-22 05:57:00,58.1,50.5,29.83,ENE,67,0.7,0.7,76,0.00,,,0.00,LWC V2.10 B1813,2013-07-22 12:57:00,
2013-07-22 06:02:00,58.3,50.7,29.83,ENE,67,0.0,0.0,76,0.00,,,0.00,LWC V2.10 B1813,2013-07-22 13:02:00,
2013-07-22 06:07:00,58.6,51.1,29.83,NE,45,0.0,0.0,76,0.00,,,0.00,LWC V2.10 B1813,2013-07-22 13:07:00,
2013-07-22 06:12:00,58.6,51.1,29.84,NE,45,0.0,0.0,76,0.00,,,0.00,LWC V2.10 B1813,2013-07-22 13:12:00,
2013-07-22 06:17:00,58.8,51.3,29.84,NE,45,0.0,0.0,76,0.00,,,0.00,LWC V2.10 B1813,2013-07-22 13:17:00,
2013-07-22 06:22:00,58.8,50.9,29.84,NW,315,0.0,0.0,75,0.00,,,0.00,LWC V2.10 B1813,2013-07-22 13:22:00,
2013-07-22 06:27:00,58.6,50.7,29.84,NW,315,0.0,0.0,75,0.00,,,0.00,LWC V2.10 B1813,2013-07-22 13:27:00,
2013-07-22 06:32:00,58.3,50.7,29.84,West,270,0.0,0.0,75,0.00,,,0.00,LWC V2.10 B1813,2013-07-22 13:32:00,
2013-07-22 06:37:00,58.5,50.5,29.84,West,270,0.0,0.0,75,0.00,,,0.00,LWC V2.10 B1813,2013-07-22 13:37:00,
2013-07-22 06:42:00,58.3,50.4,29.85,West,270,0.0,0.0,75,0.00,,,0.00,LWC V2.10 B1813,2013-07-22 13:42:00,
2013-07-22 06:47:00,58.5,50.5,29.84,ENE,67,0.0,0.0,75,0.00,,,0.00,LWC V2.10 B1813,2013-07-22 13:47:00,
2013-07-22 06:52:00,58.5,50.9,29.85,ENE,67,0.0,0.0,76,0.00,,,0.00,LWC V2.10 B1813,2013-07-22 13:52:00,
2013-07-22 06:54:00,58.6,51.1,29.85,ENE,67,0.0,0.0,76,0.00,,,0.00,LWC V2.10 B1813,2013-07-22 13:54:00,
2013-07-22 06:59:00,58.8,51.3,29.84,ENE,67,0.0,0.0,76,0.00,,,0.00,LWC V2.10 B1813,2013-07-22 13:59:00,
2013-07-22 07:04:00,58.8,51.3,29.85,ENE,67,0.0,0.0,76,0.00,,,0.00,LWC V2.10 B1813,2013-07-22 14:04:00,
2013-07-22 07:09:00,59.2,51.6,29.85,ENE,67,0.0,0.0,76,0.00,,,0.00,LWC V2.10 B1813,2013-07-22 14:09:00,
2013-07-22 07:14:00,59.4,51.8,29.85,ENE,67,2.5,2.5,76,0.00,,,0.00,LWC V2.10 B1813,2013-07-22 14:14:00,
2013-07-22 07:19:00,59.5,52.0,29.85,East,90,0.0,2.0,76,0.00,,,0.00,LWC V2.10 B1813,2013-07-22 14:19:00,
2013-07-22 07:24:00,59.7,52.2,29.86,ESE,112,0.0,6.7,76,0.00,,,0.00,LWC V2.10 B1813,2013-07-22 14:24:00,
2013-07-22 07:29:00,59.7,52.5,29.86,ESE,112,1.3,1.3,77,0.00,,,0.00,LWC V2.10 B1813,2013-07-22 14:29:00,
2013-07-22 07:34:00,59.9,52.7,29.86,NE,45,0.0,2.5,77,0.00,,,0.00,LWC V2.10 B1813,2013-07-22 14:34:00,
2013-07-22 07:39:00,60.1,52.9,29.86,East,90,0.0,0.0,77,0.00,,,0.00,LWC V2.10 B1813,2013-07-22 14:39:00,
2013-07-22 07:44:00,60.1,52.9,29.86,ENE,67,2.0,2.0,77,0.00,,,0.00,LWC V2.10 B1813,2013-07-22 14:44:00,
2013-07-22 07:49:00,60.4,53.2,29.85,ENE,67,0.0,6.0,78,0.00,,,0.00,LWC V2.10 B1813,2013-07-22 14:49:00,
2013-07-22 07:54:00,60.4,53.6,29.86,ENE,67,3.6,6.3,78,0.00,,,0.00,LWC V2.10 B1813,2013-07-22 14:54:00,
2013-07-22 07:59:00,60.6,53.8,29.86,ENE,67,0.0,0.0,78,0.00,,,0.00,LWC V2.10 B1813,2013-07-22 14:59:00,
2013-07-22 08:04:00,60.6,53.4,29.86,ENE,67,4.2,4.2,77,0.00,,,0.00,LWC V2.10 B1813,2013-07-22 15:04:00,
2013-07-22 08:09:00,61.0,53.8,29.86,East,90,6.3,8.1,77,0.00,,,0.00,LWC V2.10 B1813,2013-07-22 15:09:00,
2013-07-22 08:14:00,61.0,53.8,29.86,East,90,6.5,6.5,77,0.00,,,0.00,LWC V2.10 B1813,2013-07-22 15:14:00,
2013-07-22 08:19:00,61.3,54.1,29.85,ESE,112,3.6,3.6,77,0.00,,,0.00,LWC V2.10 B1813,2013-07-22 15:19:00,
2013-07-22 08:24:00,61.5,54.2,29.86,NE,45,0.0,0.9,77,0.00,,,0.00,LWC V2.10 B1813,2013-07-22 15:24:00,
2013-07-22 08:29:00,61.7,54.0,29.85,ENE,67,0.0,0.0,76,0.00,,,0.00,LWC V2.10 B1813,2013-07-22 15:29:00,
2013-07-22 08:34:00,62.1,54.4,29.86,ENE,67,0.0,0.0,76,0.00,,,0.00,LWC V2.10 B1813,2013-07-22 15:34:00,
2013-07-22 08:39:00,62.4,54.7,29.86,NE,45,5.4,5.4,76,0.00,,,0.00,LWC V2.10 B1813,2013-07-22 15:39:00,
2013-07-22 08:44:00,62.6,54.5,29.86,NE,45,2.2,2.2,75,0.00,,,0.00,LWC V2.10 B1813,2013-07-22 15:44:00,
2013-07-22 08:49:00,63.1,54.9,29.86,East,90,0.0,2.9,75,0.00,,,0.00,LWC V2.10 B1813,2013-07-22 15:49:00,
2013-07-22 08:54:00,63.3,55.2,29.86,East,90,7.2,7.2,75,0.00,,,0.00,LWC V2.10 B1813,2013-07-22 15:54:00,
2013-07-22 08:59:00,63.9,55.4,29.86,ENE,67,6.3,6.3,74,0.00,,,0.00,LWC V2.10 B1813,2013-07-22 15:59:00,
2013-07-22 09:04:00,64.2,55.8,29.86,ESE,112,6.5,6.5,74,0.00,,,0.00,LWC V2.10 B1813,2013-07-22 16:04:00,
2013-07-22 09:09:00,64.9,56.1,29.86,NE,45,0.0,0.0,73,0.00,,,0.00,LWC V2.10 B1813,2013-07-22 16:09:00,
2013-07-22 09:14:00,65.3,56.0,29.86,ENE,67,0.0,0.0,72,0.00,,,0.00,LWC V2.10 B1813,2013-07-22 16:14:00,
2013-07-22 09:19:00,65.5,55.8,29.86,NE,45,0.0,0.0,71,0.00,,,0.00,LWC V2.10 B1813,2013-07-22 16:19:00,
2013-07-22 09:24:00,66.0,56.3,29.86,ENE,67,0.0,1.6,71,0.00,,,0.00,LWC V2.10 B1813,2013-07-22 16:24:00,
2013-07-22 09:29:00,66.4,56.7,29.86,ENE,67,0.9,0.9,71,0.00,,,0.00,LWC V2.10 B1813,2013-07-22 16:29:00,
2013-07-22 09:34:00,66.9,56.8,29.86,ESE,112,1.6,1.6,70,0.00,,,0.00,LWC V2.10 B1813,2013-07-22 16:34:00,
2013-07-22 09:39:00,67.8,57.7,29.85,ENE,67,0.0,3.1,70,0.00,,,0.00,LWC V2.10 B1813,2013-07-22 16:39:00,
2013-07-22 09:44:00,68.4,57.8,29.85,ENE,67,0.0,0.0,69,0.00,,,0.00,LWC V2.10 B1813,2013-07-22 16:44:00,
2013-07-22 09:49:00,68.7,57.7,29.85,NE,45,0.0,0.0,68,0.00,,,0.00,LWC V2.10 B1813,2013-07-22 16:49:00,
2013-07-22 09:54:00,69.4,58.0,29.85,NE,45,5.1,5.1,67,0.00,,,0.00,LWC V2.10 B1813,2013-07-22 16:54:00,
2013-07-22 09:59:00,70.0,58.0,29.85,ENE,67,0.0,0.0,66,0.00,,,0.00,LWC V2.10 B1813,2013-07-22 16:59:00,
2013-07-22 10:04:00,70.3,58.0,29.85,NNE,22,0.0,0.0,65,0.00,,,0.00,LWC V2.10 B1813,2013-07-22 17:04:00,
2013-07-22 10:09:00,70.7,57.9,29.85,NE,45,0.0,0.0,64,0.00,,,0.00,LWC V2.10 B1813,2013-07-22 17:09:00,
2013-07-22 10:14:00,71.2,58.4,29.85,ENE,67,4.2,4.2,64,0.00,,,0.00,LWC V2.10 B1813,2013-07-22 17:14:00,
2013-07-22 10:19:00,71.8,58.5,29.85,NE,45,0.0,0.0,63,0.00,,,0.00,LWC V2.10 B1813,2013-07-22 17:19:00,
2013-07-22 10:24:00,72.3,58.5,29.85,NW,315,0.0,0.0,62,0.00,,,0.00,LWC V2.10 B1813,2013-07-22 17:24:00,
2013-07-22 10:29:00,72.9,58.6,29.85,North,0,0.0,0.0,61,0.00,,,0.00,LWC V2.10 B1813,2013-07-22 17:29:00,
2013-07-22 10:34:00,73.2,58.9,29.85,NE,45,0.0,0.0,61,0.00,,,0.00,LWC V2.10 B1813,2013-07-22 17:34:00,
2013-07-22 10:35:00,73.4,59.1,29.85,NE,45,0.0,0.0,61,0.00,,,0.00,LWC V2.10 B1813,2013-07-22 17:35:00,
2013-07-22 10:40:00,73.8,59.0,29.85,ENE,67,6.5,6.5,60,0.00,,,0.00,LWC V2.10 B1813,2013-07-22 17:40:00,
2013-07-22 10:45:00,74.5,59.2,29.85,East,90,0.0,0.0,59,0.00,,,0.00,LWC V2.10 B1813,2013-07-22 17:45:00,
2013-07-22 10:50:00,75.0,59.8,29.85,NE,45,2.7,2.7,59,0.00,,,0.00,LWC V2.10 B1813,2013-07-22 17:50:00,
2013-07-22 10:55:00,75.7,59.9,29.85,ENE,67,4.5,4.5,58,0.00,,,0.00,LWC V2.10 B1813,2013-07-22 17:55:00,
2013-07-22 11:00:00,76.8,60.4,29.85,ENE,67,1.8,4.0,57,0.00,,,0.00,LWC V2.10 B1813,2013-07-22 18:00:00,
2013-07-22 11:05:00,77.2,60.2,29.85,East,90,4.9,5.1,56,0.00,,,0.00,LWC V2.10 B1813,2013-07-22 18:05:00,
2013-07-22 11:10:00,77.5,60.5,29.86,ENE,67,1.3,1.3,56,0.00,,,0.00,LWC V2.10 B1813,2013-07-22 18:10:00,
2013-07-22 11:15:00,78.1,60.6,29.86,ENE,67,0.7,0.7,55,0.00,,,0.00,LWC V2.10 B1813,2013-07-22 18:15:00,
2013-07-22 11:20:00,78.3,60.2,29.85,ENE,67,0.0,0.0,54,0.00,,,0.00,LWC V2.10 B1813,2013-07-22 18:20:00,
2013-07-22 11:25:00,78.4,60.4,29.86,ENE,67,0.0,0.0,54,0.00,,,0.00,LWC V2.10 B1813,2013-07-22 18:25:00,
2013-07-22 11:30:00,78.4,60.4,29.85,ENE,67,4.2,4.2,54,0.00,,,0.00,LWC V2.10 B1813,2013-07-22 18:30:00,
2013-07-22 11:35:00,78.6,60.5,29.85,NE,45,0.0,0.0,54,0.00,,,0.00,LWC V2.10 B1813,2013-07-22 18:35:00,
2013-07-22 11:40:00,79.0,60.4,29.85,NE,45,0.0,0.0,53,0.00,,,0.00,LWC V2.10 B1813,2013-07-22 18:40:00,
2013-07-22 11:45:00,79.5,60.9,29.85,ENE,67,0.0,1.6,53,0.00,,,0.00,LWC V2.10 B1813,2013-07-22 18:45:00,
2013-07-22 11:50:00,79.9,60.7,29.85,ENE,67,0.0,0.0,52,0.00,,,0.00,LWC V2.10 B1813,2013-07-22 18:50:00,
2013-07-22 11:55:00,80.4,60.6,29.85,ENE,67,0.0,0.0,51,0.00,,,0.00,LWC V2.10 B1813,2013-07-22 18:55:00,
2013-07-22 12:00:00,80.8,60.9,29.85,ENE,67,0.0,2.5,51,0.00,,,0.00,LWC V2.10 B1813,2013-07-22 19:00:00,
2013-07-22 12:05:00,81.3,60.9,29.85,ENE,67,6.0,6.0,50,0.00,,,0.00,LWC V2.10 B1813,2013-07-22 19:05:00,
2013-07-22 12:10:00,81.7,61.2,29.85,East,90,2.9,2.9,50,0.00,,,0.00,LWC V2.10 B1813,2013-07-22 19:10:00,
2013-07-22 12:15:00,82.2,61.1,29.85,East,90,2.2,6.3,49,0.00,,,0.00,LWC V2.10 B1813,2013-07-22 19:15:00,
2013-07-22 12:20:00,82.2,60.5,29.84,ENE,67,6.5,6.5,48,0.00,,,0.00,LWC V2.10 B1813,2013-07-22 19:20:00,
2013-07-22 12:25:00,82.2,60.5,29.84,East,90,3.8,3.8,48,0.00,,,0.00,LWC V2.10 B1813,2013-07-22 19:25:00,
2013-07-22 12:30:00,82.6,60.8,29.84,ENE,67,0.0,5.8,48,0.00,,,0.00,LWC V2.10 B1813,2013-07-22 19:30:00,
2013-07-22 12:35:00,82.8,60.4,29.84,ENE,67,2.2,2.2,47,0.00,,,0.00,LWC V2.10 B1813,2013-07-22 19:35:00,
2013-07-22 12:40:00,82.9,60.6,29.84,ENE,67,7.2,7.2,47,0.00,,,0.00,LWC V2.10 B1813,2013-07-22 19:40:00,
2013-07-22 12:45:00,83.5,60.5,29.84,NE,45,7.2,7.2,46,0.00,,,0.00,LWC V2.10 B1813,2013-07-22 19:45:00,
2013-07-22 12:50:00,84.0,60.3,29.84,NE,45,4.2,4.2,45,0.00,,,0.00,LWC V2.10 B1813,2013-07-22 19:50:00,
2013-07-22 12:55:00,84.4,60.1,29.84,ESE,112,5.8,5.8,44,0.00,,,0.00,LWC V2.10 B1813,2013-07-22 19:55:00,
2013-07-22 13:00:00,84.7,59.8,29.84,NE,45,0.0,7.6,43,0.00,,,0.00,LWC V2.10 B1813,2013-07-22 20:00:00,
2013-07-22 13:05:00,84.9,59.3,29.84,NE,45,2.7,2.7,42,0.00,,,0.00,LWC V2.10 B1813,2013-07-22 20:05:00,
2013-07-22 13:10:00,84.9,58.7,29.84,NE,45,4.7,4.7,41,0.00,,,0.00,LWC V2.10 B1813,2013-07-22 20:10:00,
2013-07-22 13:15:00,85.3,58.4,29.84,ENE,67,6.3,6.3,40,0.00,,,0.00,LWC V2.10 B1813,2013-07-22 20:15:00,
2013-07-22 13:17:00,85.3,58.4,29.84,ENE,67,6.3,6.3,40,0.00,,,0.00,LWC V2.10 B1813,2013-07-22 20:17:00,
2013-07-22 13:22:00,85.3,58.4,29.84,ESE,112,2.9,12.5,40,0.00,,,0.00,LWC V2.10 B1813,2013-07-22 20:22:00,
2013-07-22 13:27:00,84.9,58.7,29.84,ENE,67,5.8,5.8,41,0.00,,,0.00,LWC V2.10 B1813,2013-07-22 20:27:00,
2013-07-22 13:32:00,84.7,57.9,29.84,ENE,67,5.4,5.4,40,0.00,,,0.00,LWC V2.10 B1813,2013-07-22 20:32:00,
2013-07-22 13:37:00,84.7,57.9,29.84,ENE,67,0.0,11.4,40,0.00,,,0.00,LWC V2.10 B1813,2013-07-22 20:37:00,
2013-07-22 13:42:00,84.9,57.2,29.84,ENE,67,1.6,1.6,39,0.00,,,0.00,LWC V2.10 B1813,2013-07-22 20:42:00,
2013-07-22 13:47:00,85.3,58.4,29.84,NE,45,1.8,6.3,40,0.00,,,0.00,LWC V2.10 B1813,2013-07-22 20:47:00,
2013-07-22 13:52:00,85.6,57.9,29.84,NNE,22,1.6,1.6,39,0.00,,,0.00,LWC V2.10 B1813,2013-07-22 20:52:00,
2013-07-22 13:57:00,85.6,58.7,29.84,ENE,67,6.9,6.9,40,0.00,,,0.00,LWC V2.10 B1813,2013-07-22 20:57:00,
2013-07-22 14:02:00,85.6,59.3,29.84,East,90,10.1,10.1,41,0.00,,,0.00,LWC V2.10 B1813,2013-07-22 21:02:00,
2013-07-22 14:07:00,85.6,59.3,29.84,ENE,67,6.0,6.0,41,0.00,,,0.00,LWC V2.10 B1813,2013-07-22 21:07:00,
2013-07-22 14:12:00,85.1,58.8,29.83,NE,45,4.0,4.0,41,0.00,,,0.00,LWC V2.10 B1813,2013-07-22 21:12:00,
2013-07-22 14:17:00,84.7,59.8,29.84,ENE,67,0.0,4.2,43,0.00,,,0.00,LWC V2.10 B1813,2013-07-22 21:17:00,
2013-07-22 14:22:00,84.4,59.4,29.83,ENE,67,6.0,6.7,43,0.00,,,0.00,LWC V2.10 B1813,2013-07-22 21:22:00,
2013-07-22 14:27:00,84.0,59.7,29.84,NNE,22,4.2,4.2,44,0.00,,,0.00,LWC V2.10 B1813,2013-07-22 21:27:00,
2013-07-22 14:32:00,83.7,58.8,29.84,NE,45,0.0,0.0,43,0.00,,,0.00,LWC V2.10 B1813,2013-07-22 21:32:00,
2013-07-22 14:37:00,83.5,59.2,29.84,WSW,247,0.0,0.0,44,0.00,,,0.00,LWC V2.10 B1813,2013-07-22 21:37:00,
2013-07-22 14:42:00,83.1,58.9,29.84,WNW,292,0.0,0.0,44,0.00,,,0.00,LWC V2.10 B1813,2013-07-22 21:42:00,
2013-07-22 14:47:00,82.2,58.7,29.84,NNW,337,1.3,3.6,45,0.00,,,0.00,LWC V2.10 B1813,2013-07-22 21:47:00,
2013-07-22 14:52:00,81.7,58.8,29.84,NW,315,0.0,0.0,46,0.00,,,0.00,LWC V2.10 B1813,2013-07-22 21:52:00,
2013-07-22 14:57:00,81.3,58.5,29.84,NW,315,2.7,2.7,46,0.00,,,0.00,LWC V2.10 B1813,2013-07-22 21:57:00,
2013-07-22 15:02:00,80.8,58.0,29.84,SSE,157,0.0,0.0,46,0.00,,,0.00,LWC V2.10 B1813,2013-07-22 22:02:00,
2013-07-22 15:07:00,80.6,58.4,29.84,North,0,0.0,0.0,47,0.00,,,0.00,LWC V2.10 B1813,2013-07-22 22:07:00,
2013-07-22 15:12:00,80.4,58.3,29.84,WSW,247,5.4,5.4,47,0.00,,,0.00,LWC V2.10 B1813,2013-07-22 22:12:00,
2013-07-22 15:17:00,80.1,57.9,29.84,NW,315,0.0,0.0,47,0.00,,,0.00,LWC V2.10 B1813,2013-07-22 22:17:00,
2013-07-22 15:22:00,79.9,57.8,29.84,East,90,2.2,2.2,47,0.00,,,0.00,LWC V2.10 B1813,2013-07-22 22:22:00,
2013-07-22 15:27:00,79.5,57.5,29.84,NW,315,0.0,0.0,47,0.00,,,0.00,LWC V2.10 B1813,2013-07-22 22:27:00,
2013-07-22 15:32:00,79.5,56.8,29.84,SE,135,0.0,5.6,46,0.00,,,0.00,LWC V2.10 B1813,2013-07-22 22:32:00,
2013-07-22 15:37:00,79.3,56.7,29.84,ENE,67,3.8,3.8,46,0.00,,,0.00,LWC V2.10 B1813,2013-07-22 22:37:00,
2013-07-22 15:42:00,79.3,56.7,29.84,NE,45,2.2,2.2,46,0.00,,,0.00,LWC V2.10 B1813,2013-07-22 22:42:00,
2013-07-22 15:47:00,79.0,57.0,29.84,ESE,112,0.0,1.3,47,0.00,,,0.00,LWC V2.10 B1813,2013-07-22 22:47:00,
2013-07-22 15:52:00,79.0,57.0,29.84,NNE,22,0.0,0.0,47,0.00,,,0.00,LWC V2.10 B1813,2013-07-22 22:52:00,
2013-07-22 15:57:00,79.0,56.4,29.84,ESE,112,4.9,4.9,46,0.00,,,0.00,LWC V2.10 B1813,2013-07-22 22:57:00,
2013-07-22 16:02:00,79.0,55.7,29.84,ENE,67,3.4,3.4,45,0.00,,,0.00,LWC V2.10 B1813,2013-07-22 23:02:00,
2013-07-22 16:07:00,78.6,55.4,29.83,East,90,0.0,0.0,45,0.00,,,0.00,LWC V2.10 B1813,2013-07-22 23:07:00,
2013-07-22 16:12:00,78.6,56.0,29.83,ESE,112,0.0,0.0,46,0.00,,,0.00,LWC V2.10 B1813,2013-07-22 23:12:00,
2013-07-22 16:17:00,78.6,56.6,29.83,ENE,67,0.0,0.0,47,0.00,,,0.00,LWC V2.10 B1813,2013-07-22 23:17:00,
2013-07-22 16:22:00,78.6,56.6,29.83,NE,45,0.0,0.0,47,0.00,,,0.00,LWC V2.10 B1813,2013-07-22 23:22:00,
2013-07-22 16:27:00,78.6,56.0,29.83,NNE,22,0.0,0.0,46,0.00,,,0.00,LWC V2.10 B1813,2013-07-22 23:27:00,
2013-07-22 16:32:00,78.6,55.4,29.82,NW,315,0.0,0.0,45,0.00,,,0.00,LWC V2.10 B1813,2013-07-22 23:32:00,
2013-07-22 16:33:00,78.6,55.4,29.82,NW,315,0.0,0.0,45,0.00,,,0.00,LWC V2.10 B1813,2013-07-22 23:33:00,
2013-07-22 16:34:00,78.6,55.4,29.82,NW,315,0.0,0.0,45,0.00,,,0.00,LWC V2.10 B1813,2013-07-22 23:34:00,
2013-07-22 16:39:00,78.6,55.4,29.82,NE,45,0.0,0.0,45,0.00,,,0.00,LWC V2.10 B1813,2013-07-22 23:39:00,
2013-07-22 16:44:00,79.0,55.7,29.82,NNE,22,3.8,3.8,45,0.00,,,0.00,LWC V2.10 B1813,2013-07-22 23:44:00,
2013-07-22 16:49:00,79.0,55.1,29.82,ENE,67,2.9,2.9,44,0.00,,,0.00,LWC V2.10 B1813,2013-07-22 23:49:00,
2013-07-22 16:54:00,79.0,55.1,29.83,NE,45,0.0,0.0,44,0.00,,,0.00,LWC V2.10 B1813,2013-07-22 23:54:00,
2013-07-22 16:59:00,79.0,55.1,29.83,SSE,157,0.0,0.0,44,0.00,,,0.00,LWC V2.10 B1813,2013-07-22 23:59:00,
2013-07-22 17:04:00,78.6,54.8,29.83,NE,45,0.0,0.0,44,0.00,,,0.00,LWC V2.10 B1813,2013-07-23 00:04:00,
2013-07-22 17:09:00,78.4,55.3,29.83,SSE,157,2.5,2.5,45,0.00,,,0.00,LWC V2.10 B1813,2013-07-23 00:09:00,
2013-07-22 17:14:00,78.1,55.5,29.83,NNE,22,0.0,0.0,46,0.00,,,0.00,LWC V2.10 B1813,2013-07-23 00:14:00,
2013-07-22 17:19:00,77.5,55.1,29.83,SE,135,4.9,4.9,46,0.00,,,0.00,LWC V2.10 B1813,2013-07-23 00:19:00,
2013-07-22 17:24:00,77.4,54.9,29.84,SE,135,0.0,0.0,46,0.00,,,0.00,LWC V2.10 B1813,2013-07-23 00:24:00,
2013-07-22 17:29:00,76.8,55.0,29.84,NE,45,0.0,0.0,47,0.00,,,0.00,LWC V2.10 B1813,2013-07-23 00:29:00,
2013-07-22 17:34:00,76.6,54.9,29.84,ENE,67,0.0,6.7,47,0.00,,,0.00,LWC V2.10 B1813,2013-07-23 00:34:00,
2013-07-22 17:39:00,76.3,54.5,29.84,SE,135,3.6,3.6,47,0.00,,,0.00,LWC V2.10 B1813,2013-07-23 00:39:00,
2013-07-22 17:44:00,75.9,54.8,29.84,ENE,67,0.0,1.3,48,0.00,,,0.00,LWC V2.10 B1813,2013-07-23 00:44:00,
2013-07-22 17:49:00,75.4,55.0,29.83,NE,45,0.0,0.0,49,0.00,,,0.00,LWC V2.10 B1813,2013-07-23 00:49:00,
2013-07-22 17:54:00,75.0,54.6,29.84,ENE,67,0.0,0.0,49,0.00,,,0.00,LWC V2.10 B1813,2013-07-23 00:54:00,
2013-07-22 17:59:00,75.0,55.0,29.84,ENE,67,8.7,8.7,49,0.00,,,0.00,LWC V2.10 B1813,2013-07-23 00:59:00,
2013-07-22 18:04:00,74.3,54.5,29.85,ENE,67,6.5,6.9,50,0.00,,,0.00,LWC V2.10 B1813,2013-07-23 01:04:00,
2013-07-22 18:09:00,73.8,54.5,29.84,ENE,67,7.4,7.4,51,0.00,,,0.00,LWC V2.10 B1813,2013-07-23 01:09:00,
2013-07-22 18:14:00,73.2,54.4,29.86,ENE,67,4.2,12.7,52,0.00,,,0.00,LWC V2.10 B1813,2013-07-23 01:14:00,
2013-07-22 18:19:00,72.7,54.5,29.86,ENE,67,3.8,5.1,53,0.00,,,0.00,LWC V2.10 B1813,2013-07-23 01:19:00,
2013-07-22 18:24:00,72.3,54.6,29.86,ESE,112,6.3,6.3,54,0.00,,,0.00,LWC V2.10 B1813,2013-07-23 01:24:00,
2013-07-22 18:29:00,71.8,54.7,29.86,East,90,0.0,0.0,55,0.00,,,0.00,LWC V2.10 B1813,2013-07-23 01:29:00,
2013-07-22 18:34:00,71.4,54.3,29.86,ENE,67,0.0,6.5,55,0.00,,,0.00,LWC V2.10 B1813,2013-07-23 01:34:00,
2013-07-22 18:39:00,71.4,54.3,29.86,ENE,67,0.0,0.0,55,0.00,,,0.00,LWC V2.10 B1813,2013-07-23 01:39:00,
2013-07-22 18:44:00,71.8,54.3,29.86,NE,45,2.2,2.2,55,0.00,,,0.00,LWC V2.10 B1813,2013-07-23 01:44:00,
2013-07-22 18:49:00,71.6,54.5,29.86,ENE,67,8.3,8.3,55,0.00,,,0.00,LWC V2.10 B1813,2013-07-23 01:49:00,
2013-07-22 18:54:00,71.4,54.3,29.86,East,90,7.6,7.6,55,0.00,,,0.00,LWC V2.10 B1813,2013-07-23 01:54:00,
2013-07-22 18:59:00,71.2,54.2,29.86,ENE,67,0.0,6.0,55,0.00,,,0.00,LWC V2.10 B1813,2013-07-23 01:59:00,
2013-07-22 19:04:00,71.4,54.3,29.86,NNE,22,0.0,1.8,55,0.00,,,0.00,LWC V2.10 B1813,2013-07-23 02:04:00,
2013-07-22 19:09:00,71.4,53.8,29.86,North,0,2.9,2.9,54,0.00,,,0.00,LWC V2.10 B1813,2013-07-23 02:09:00,
2013-07-22 19:14:00,71.4,53.8,29.86,ENE,67,1.3,1.3,54,0.00,,,0.00,LWC V2.10 B1813,2013-07-23 02:14:00,
2013-07-22 19:19:00,71.4,53.8,29.86,ENE,67,0.0,8.5,54,0.00,,,0.00,LWC V2.10 B1813,2013-07-23 02:19:00,
2013-07-22 19:24:00,71.4,53.3,29.85,ENE,67,0.0,0.0,53,0.00,,,0.00,LWC V2.10 B1813,2013-07-23 02:24:00,
2013-07-22 19:29:00,71.8,53.7,29.85,ENE,67,0.0,7.2,53,0.00,,,0.00,LWC V2.10 B1813,2013-07-23 02:29:00,
2013-07-22 19:34:00,72.0,53.8,29.85,ENE,67,0.0,0.0,53,0.00,,,0.00,LWC V2.10 B1813,2013-07-23 02:34:00,
2013-07-22 19:39:00,72.1,54.0,29.85,ESE,112,0.0,0.0,53,0.00,,,0.00,LWC V2.10 B1813,2013-07-23 02:39:00,
2013-07-22 19:44:00,72.5,54.3,29.85,NE,45,0.0,0.0,53,0.00,,,0.00,LWC V2.10 B1813,2013-07-23 02:44:00,
2013-07-22 19:49:00,72.7,54.5,29.85,NE,45,0.0,0.0,53,0.00,,,0.00,LWC V2.10 B1813,2013-07-23 02:49:00,
2013-07-22 19:54:00,72.9,54.6,29.85,NE,45,0.0,0.0,53,0.00,,,0.00,LWC V2.10 B1813,2013-07-23 02:54:00,
2013-07-22 19:59:00,73.8,55.5,29.86,NE,45,0.0,0.0,53,0.00,,,0.00,LWC V2.10 B1813,2013-07-23 02:59:00,
2013-07-22 20:04:00,74.3,55.5,29.85,ENE,67,0.0,0.0,52,0.00,,,0.00,LWC V2.10 B1813,2013-07-23 03:04:00,
2013-07-22 20:09:00,74.5,55.2,29.85,NE,45,0.0,0.0,51,0.00,,,0.00,LWC V2.10 B1813,2013-07-23 03:09:00,
2013-07-22 20:14:00,74.8,55.5,29.85,NNE,22,0.0,0.0,51,0.00,,,0.00,LWC V2.10 B1813,2013-07-23 03:14:00,
2013-07-22 20:19:00,74.7,55.4,29.84,NNE,22,0.0,0.0,51,0.00,,,0.00,LWC V2.10 B1813,2013-07-23 03:19:00,
2013-07-22 20:24:00,74.8,55.5,29.84,NNE,22,0.0,0.0,51,0.00,,,0.00,LWC V2.10 B1813,2013-07-23 03:24:00,
2013-07-22 20:29:00,75.0,55.7,29.84,North,0,0.0,0.0,51,0.00,,,0.00,LWC V2.10 B1813,2013-07-23 03:29:00,
2013-07-22 20:34:00,75.0,55.7,29.84,North,0,0.0,0.0,51,0.00,,,0.00,LWC V2.10 B1813,2013-07-23 03:34:00,
2013-07-22 20:39:00,75.0,55.7,29.84,North,0,0.0,0.0,51,0.00,,,0.00,LWC V2.10 B1813,2013-07-23 03:39:00,
2013-07-22 20:44:00,74.3,54.5,29.85,North,0,0.0,0.0,50,0.00,,,0.00,LWC V2.10 B1813,2013-07-23 03:44:00,
2013-07-22 20:49:00,73.9,54.6,29.85,North,0,0.0,0.0,51,0.00,,,0.00,LWC V2.10 B1813,2013-07-23 03:49:00,
2013-07-22 20:54:00,73.0,53.9,29.85,NW,315,0.0,0.0,51,0.00,,,0.00,LWC V2.10 B1813,2013-07-23 03:54:00,
2013-07-22 20:59:00,72.7,53.5,29.85,NW,315,0.0,0.0,51,0.00,,,0.00,LWC V2.10 B1813,2013-07-23 03:59:00,
2013-07-22 21:01:00,72.7,53.5,29.85,NW,315,0.0,0.0,51,0.00,,,0.00,LWC V2.10 B1813,2013-07-23 04:01:00,
2013-07-22 21:06:00,72.1,53.5,29.86,NW,315,0.0,0.0,52,0.00,,,0.00,LWC V2.10 B1813,2013-07-23 04:06:00,
2013-07-22 21:11:00,71.8,53.2,29.86,WNW,292,0.0,0.0,52,0.00,,,0.00,LWC V2.10 B1813,2013-07-23 04:11:00,
2013-07-22 21:16:00,71.4,53.3,29.86,North,0,0.0,0.0,53,0.00,,,0.00,LWC V2.10 B1813,2013-07-23 04:16:00,
2013-07-22 21:21:00,71.2,53.7,29.86,NNW,337,0.0,0.0,54,0.00,,,0.00,LWC V2.10 B1813,2013-07-23 04:21:00,
2013-07-22 21:26:00,70.9,53.9,29.86,WNW,292,0.0,0.0,55,0.00,,,0.00,LWC V2.10 B1813,2013-07-23 04:26:00,
2013-07-22 21:31:00,70.3,54.4,29.86,West,270,0.0,0.0,57,0.00,,,0.00,LWC V2.10 B1813,2013-07-23 04:31:00,
2013-07-22 21:36:00,69.6,53.7,29.87,West,270,2.7,2.7,57,0.00,,,0.00,LWC V2.10 B1813,2013-07-23 04:36:00,
2013-07-22 21:41:00,69.4,53.5,29.86,West,270,0.0,0.0,57,0.00,,,0.00,LWC V2.10 B1813,2013-07-23 04:41:00,
2013-07-22 21:46:00,69.3,53.9,29.87,WNW,292,0.0,0.0,58,0.00,,,0.00,LWC V2.10 B1813,2013-07-23 04:46:00,
2013-07-22 21:51:00,69.1,53.7,29.88,WNW,292,0.0,0.0,58,0.00,,,0.00,LWC V2.10 B1813,2013-07-23 04:51:00,
2013-07-22 21:56:00,68.9,53.5,29.88,WNW,292,0.0,0.0,58,0.00,,,0.00,LWC V2.10 B1813,2013-07-23 04:56:00,
2013-07-22 22:03:00,68.7,53.8,29.88,WNW,292,0.0,0.0,59,0.00,,,0.00,LWC V2.10 B1813,2013-07-23 05:03:00,
2013-07-22 22:08:00,68.7,53.8,29.88,East,90,0.0,0.0,59,0.00,,,0.00,LWC V2.10 B1813,2013-07-23 05:08:00,
2013-07-22 22:13:00,68.5,53.6,29.87,East,90,0.0,0.0,59,0.00,,,0.00,LWC V2.10 B1813,2013-07-23 05:13:00,
2013-07-22 22:18:00,68.5,53.6,29.88,East,90,0.0,0.0,59,0.00,,,0.00,LWC V2.10 B1813,2013-07-23 05:18:00,
2013-07-22 22:23:00,68.2,53.3,29.88,East,90,0.0,0.0,59,0.00,,,0.00,LWC V2.10 B1813,2013-07-23 05:23:00,
2013-07-22 22:28:00,68.2,53.3,29.88,East,90,0.0,0.0,59,0.00,,,0.00,LWC V2.10 B1813,2013-07-23 05:28:00,
2013-07-22 22:33:00,68.0,53.1,29.88,East,90,0.0,0.0,59,0.00,,,0.00,LWC V2.10 B1813,2013-07-23 05:33:00,
2013-07-22 22:38:00,67.8,53.0,29.87,East,90,0.0,0.0,59,0.00,,,0.00,LWC V2.10 B1813,2013-07-23 05:38:00,
2013-07-22 22:43:00,67.8,53.0,29.88,East,90,0.0,0.0,59,0.00,,,0.00,LWC V2.10 B1813,2013-07-23 05:43:00,
2013-07-22 22:48:00,67.8,53.0,29.88,East,90,0.0,0.0,59,0.00,,,0.00,LWC V2.10 B1813,2013-07-23 05:48:00,
2013-07-22 22:53:00,67.6,52.8,29.88,East,90,0.0,0.0,59,0.00,,,0.00,LWC V2.10 B1813,2013-07-23 05:53:00,
2013-07-22 22:58:00,67.6,52.8,29.88,East,90,0.0,0.0,59,0.00,,,0.00,LWC V2.10 B1813,2013-07-23 05:58:00,
2013-07-22 23:03:00,67.5,52.6,29.88,East,90,0.0,0.0,59,0.00,,,0.00,LWC V2.10 B1813,2013-07-23 06:03:00,
2013-07-22 23:08:00,67.3,53.0,29.88,East,90,0.0,0.0,60,0.00,,,0.00,LWC V2.10 B1813,2013-07-23 06:08:00,
2013-07-22 23:13:00,67.1,52.8,29.87,East,90,0.0,0.0,60,0.00,,,0.00,LWC V2.10 B1813,2013-07-23 06:13:00,
2013-07-22 23:18:00,67.1,52.8,29.86,East,90,0.0,0.0,60,0.00,,,0.00,LWC V2.10 B1813,2013-07-23 06:18:00,
2013-07-22 23:23:00,66.9,52.6,29.86,East,90,0.0,0.0,60,0.00,,,0.00,LWC V2.10 B1813,2013-07-23 06:23:00,
2013-07-22 23:28:00,66.7,52.9,29.85,ENE,67,0.0,0.0,61,0.00,,,0.00,LWC V2.10 B1813,2013-07-23 06:28:00,
2013-07-22 23:33:00,66.6,52.7,29.85,West,270,0.0,0.0,61,0.00,,,0.00,LWC V2.10 B1813,2013-07-23 06:33:00,
2013-07-22 23:38:00,66.4,53.0,29.85,West,270,0.0,0.0,62,0.00,,,0.00,LWC V2.10 B1813,2013-07-23 06:38:00,
2013-07-22 23:43:00,66.0,53.0,29.86,NNW,337,0.0,0.0,63,0.00,,,0.00,LWC V2.10 B1813,2013-07-23 06:43:00,
2013-07-22 23:48:00,66.0,53.0,29.86,NNW,337,0.0,0.0,63,0.00,,,0.00,LWC V2.10 B1813,2013-07-23 06:48:00,
2013-07-22 23:53:00,66.0,53.0,29.87,NNW,337,0.0,0.0,63,0.00,,,0.00,LWC V2.10 B1813,2013-07-23 06:53:00,
2013-07-22 23:58:00,66.0,53.5,29.87,NNW,337,0.0,0.0,64,0.00,,,0.00,LWC V2.10 B1813,2013-07-23 06:58:00,